Location: Roanoke
(37.2710°N, 79.9420°W)
Time: 03:17:31
(UTC-05:00)

Transit 2A - Pass Details

Date: 23 November 2019
Orbit: 602 x 957 km, 66.7° (Epoch: 10 December)

Event Time Altitude Azimuth Distance (km) Brightness Sun altitude
Rises 20:04:49 0° 336° (NNW) 2,858 9.2 -35.5°
Enters shadow 20:05:02 - 337° (NNW) 2,773 9.2 -35.5°
Reaches altitude 10° 20:07:05 10° 341° (NNW) 1,962 - -35.9°
Maximum altitude 20:11:22 55° 60° (ENE) 752 - -36.8°
Drops below altitude 10° 20:15:54 10° 139° (SE) 2,062 - -37.7°
Sets 20:18:19 0° 143° (SE) 3,019 - -38.2°
